This demonstration page uses our WeatherBlox Daily Observations layout. Learn more.

Left ArrowRight Arrow

39.92423, -83.80882

Hourly Observations for March 20, 2017

Temp ( °F °C ) Dew Point ( °F °C ) Humidity (%) Winds ( mph kmh ) Pressure ( in mb ) Visibility ( mi km ) Precip ( " mm )
12:56 am 00:56 Clear 32 0 30 -1.1 92 92 SE 6 9 30.28 1025 10 16.0934 0 0
1:56 am 01:56 Clear 33 0.6 31 -0.6 92 92 SSE 8 13 30.26 1025 10 16.0934 0 0
2:56 am 02:56 Clear 34 1.1 30 -1.1 85 85 SSE 9 15 30.23 1024 10 16.0934 0 0
3:56 am 03:56 Clear 34 1.1 30 -1.1 85 85 SSE 10 17 30.2 1023 10 16.0934 0 0
4:56 am 04:56 Clear 34 1.1 30 -1.1 85 85 SSE 7 11 30.19 1023 10 16.0934 0 0
5:56 am 05:56 Cloudy 34 1.1 30 -1.1 85 85 NE 6 9 30.22 1023 10 16.0934 0 0
6:56 am 06:56 Cloudy 35 1.7 31 -0.6 85 85 E 8 13 30.21 1023 10 16.0934 0 0
7:56 am 07:56 Cloudy with Light Rain 36 2.2 31 -0.6 82 82 WNW 6 9 30.28 1026 10 16.0934 0 0.0254
8:56 am 08:56 Cloudy with Light Snow 34 1.1 32 0 92 92 SSW 8 13 30.24 1024 3 4.82802 0.17 4.318
9:09 am 09:09 Cloudy with Light Snow 34 1 32 0 93 93 SW 12 19 30.27 1025 2.5 4.02335 0.1 2.54
9:33 am 09:33 Cloudy with Light Snow 34 1 34 1 100 100 SSW 10 17 30.24 1024 3 4.82802 0.22 5.588
9:44 am 09:44 Cloudy with Light Snow 36 2 34 1 93 93 SSW 13 20 30.24 1024 2.5 4.02335 0.27 6.858
9:52 am 09:52 Cloudy with Light Snow 36 2 34 1 93 93 SSW 9 15 30.21 1023 3 4.82802 0.3 7.62
9:56 am 09:56 Cloudy with Light Rain 35 1.7 34 1.1 96 96 S 10 17 30.18 1022 3 4.82802 0.31 7.874
10:56 am 10:56 Cloudy with Rain 37 2.8 36 2.2 96 96 SSW 12 19 30.16 1021 8 12.87472 0.08 2.032
11:56 am 11:56 Cloudy with Light Rain 40 4.4 38 3.3 93 93 S 12 19 30.1 1019 9 14.48406 0.09 2.286
12:56 pm 12:56 Mostly Sunny 44 6.7 41 5 89 89 S 15 24 30.06 1018 10 16.0934 0.01 0.254
1:56 pm 13:56 Sunny 50 10 45 7.2 83 83 SSW 12 19 30.02 1017 10 16.0934 0 0
2:56 pm 14:56 Mostly Sunny 51 10.6 45 7.2 80 80 SSW 8 13 30 1016 10 16.0934 0 0
3:56 pm 15:56 Cloudy with Light Rain 50 10 46 7.8 86 86 SE 5 7 30.01 1016 10 16.0934 0.01 0.254
4:36 pm 16:36 Cloudy with Nearby Thunderstorms 48 9 46 8 94 94 Calm 30.03 1017 5 8.0467 0.04 1.016
4:56 pm 16:56 Cloudy with Light Rain 48 8.9 47 8.3 96 96 Calm 30.01 1016 7 11.26538 0.09 2.286
5:06 pm 17:06 Cloudy with Heavy Thunderstorms 48 9 46 8 94 94 VRB 3 6 30.03 1017 3 4.82802 0.06 1.524
5:19 pm 17:19 Cloudy with Heavy Thunderstorms 48 9 46 8 94 94 WSW 8 13 30.06 1018 4 6.43736 0.16 4.064
5:48 pm 17:48 Cloudy with Rain 48 9 46 8 94 94 SSE 14 22 29.97 1015 4 6.43736 0.31 7.874
5:56 pm 17:56 Cloudy with Rain 48 8.9 47 8.3 96 96 SSE 15 24 29.95 1014 4 6.43736 0.35 8.89
6:12 pm 18:12 Cloudy with Light Rain 46 8 45 7 93 93 SSE 15 24 29.94 1014 4 6.43736 0.06 1.524
6:21 pm 18:21 Cloudy with Light Rain 46 8 45 7 93 93 S 10 17 29.94 1014 5 8.0467 0.06 1.524
6:56 pm 18:56 Cloudy 48 8.9 47 8.3 96 96 NNE 7 11 29.96 1014 10 16.0934 0.06 1.524
7:16 pm 19:16 Cloudy 48 9 46 8 94 94 W 6 9 30 1016 10 16.0934 0 0.0254
7:56 pm 19:56 Cloudy 48 8.9 47 8.3 96 96 NNW 3 6 30.02 1017 10 16.0934 0 0.0254
8:15 pm 20:15 Cloudy with Light Thunderstorms 46 8 46 8 100 100 Calm 30 1016 7 11.26538 0.01 0.254
8:32 pm 20:32 Cloudy with Nearby Thunderstorms 46 8 46 8 100 100 Calm 30 1016 5 8.0467 0.04 1.016
8:49 pm 20:49 Cloudy with Nearby Thunderstorms 46 8 46 8 100 100 N 7 11 30.03 1017 4 6.43736 0.07 1.778
8:56 pm 20:56 Cloudy with Nearby Thunderstorms 47 8.3 46 7.8 97 97 N 5 7 30.02 1017 4 6.43736 0.08 2.032
9:29 pm 21:29 Cloudy with Light Thunderstorms 46 8 45 7 93 93 E 5 7 30.03 1017 2.5 4.02335 0.04 1.016
9:37 pm 21:37 Cloudy with Rain 45 7 45 7 100 100 E 5 7 30.03 1017 2.5 4.02335 0.06 1.524
9:56 pm 21:56 Cloudy with Light Rain 45 7.2 44 6.7 97 97 Calm 30.03 1017 2.5 4.02335 0.11 2.794
10:13 pm 22:13 Cloudy with Rain 45 7 45 7 100 100 ENE 5 7 30.03 1017 1.75 2.816345 0.03 0.762
10:23 pm 22:23 Cloudy with Light Rain 45 7 45 7 100 100 NE 3 6 30.03 1017 2.5 4.02335 0.04 1.016
10:56 pm 22:56 Cloudy with Light Rain 44 6.7 44 6.7 100 100 NE 7 11 30.04 1017 2.5 4.02335 0.11 2.794
11:10 pm 23:10 Cloudy with Rain 45 7 43 6 93 93 NE 3 6 30.03 1017 2.5 4.02335 0.01 0.254
11:43 pm 23:43 Cloudy with Mist and Fog 43 6 43 6 100 100 E 3 6 30.03 1017 3 4.82802 0.02 0.508
11:56 pm 23:56 Cloudy with Light Rain 43 6.1 43 6.1 100 100 Calm 30.03 1017 3 4.82802 0.02 0.508

Powered by AerisWeather